| time (UTC) | temp C | wind direction | speed KPH | gust KPH | rain 1hr cm | rain 24hr cm | rain mn cm | humidity % | barometer mb |
| 20260507163025 | 14 | 267 | 1.6 | 8.0 | 0.00 | 0.43 | 0.00 | 30 | 1019.3 |
| 20260507161538 | 13 | 250 | 3.2 | 8.0 | 0.00 | 0.43 | 0.00 | 31 | 1019.7 |
| 20260507160034 | 12 | 304 | 4.8 | 12.9 | 0.00 | 0.43 | 0.00 | 34 | 1019.6 |
| 20260507154532 | 11 | 304 | 6.4 | 14.5 | 0.00 | 0.43 | 0.00 | 35 | 1019.7 |
| 20260507153026 | 11 | 313 | 4.8 | 9.7 | 0.00 | 0.43 | 0.00 | 39 | 1019.7 |
| 20260507151535 | 10 | 336 | 4.8 | 9.7 | 0.00 | 0.43 | 0.00 | 43 | 1019.9 |
| 20260507150024 | 9 | 338 | 3.2 | 16.1 | 0.00 | 0.43 | 0.00 | 46 | 1019.9 |
| 20260507144524 | 8 | 317 | 4.8 | 12.9 | 0.00 | 0.43 | 0.00 | 48 | 1019.8 |
| 20260507143025 | 7 | 329 | 6.4 | 12.9 | 0.00 | 0.43 | 0.00 | 52 | 1019.8 |
| 20260507141526 | 5 | 301 | 4.8 | 12.9 | 0.00 | 0.43 | 0.00 | 56 | 1019.8 |
| 20260507140026 | 4 | 360 | 0.0 | 6.4 | 0.00 | 0.43 | 0.00 | 59 | 1019.7 |
| 20260507134535 | 3 | 16 | 3.2 | 6.4 | 0.00 | 0.43 | 0.00 | 62 | 1019.7 |
| 20260507133024 | 2 | 34 | 3.2 | 6.4 | 0.00 | 0.43 | 0.00 | 62 | 1019.4 |
| 20260507131530 | 2 | 27 | 0.0 | 6.4 | 0.00 | 0.43 | 0.00 | 63 | 1019.2 |
| 20260507130026 | 1 | 36 | 1.6 | 6.4 | 0.00 | 0.43 | 0.00 | 63 | 1019.2 |
| 20260507124524 | 1 | 26 | 1.6 | 4.8 | 0.00 | 0.43 | 0.00 | 64 | 1018.9 |
| 20260507123028 | 0 | 40 | 1.6 | 3.2 | 0.00 | 0.43 | 0.00 | 65 | 1019.0 |
| 20260507121526 | 0 | 21 | 1.6 | 8.0 | 0.00 | 0.43 | 0.00 | 64 | 1018.9 |
| 20260507120025 | 0 | 35 | 1.6 | 8.0 | 0.00 | 0.43 | 0.00 | 65 | 1018.9 |
| 20260507114529 | 0 | 30 | 1.6 | 8.0 | 0.00 | 0.43 | 0.00 | 67 | 1018.9 |
| 20260507113024 | -1 | 26 | 3.2 | 8.0 | 0.00 | 0.43 | 0.00 | 71 | 1019.1 |
| 20260507111524 | -2 | 22 | 3.2 | 4.8 | 0.00 | 0.43 | 0.00 | 76 | 1019.0 |
| 20260507110022 | -2 | 67 | 0.0 | 3.2 | 0.00 | 0.43 | 0.00 | 76 | 1019.1 |
| 20260507104525 | -1 | 67 | 0.0 | 0.0 | 0.00 | 0.43 | 0.00 | 76 | 1019.1 |
| 20260507103027 | -1 | 67 | 0.0 | 1.6 | 0.00 | 0.43 | 0.00 | 76 | 1018.9 |
| 20260507101524 | -1 | 92 | 0.0 | 1.6 | 0.00 | 0.43 | 0.00 | 77 | 1019.2 |
| 20260507100028 | -1 | 92 | 0.0 | 1.6 | 0.00 | 0.43 | 0.00 | 78 | 1019.3 |
| 20260507094522 | -1 | 92 | 0.0 | 3.2 | 0.00 | 0.43 | 0.00 | 79 | 1019.2 |
| 20260507093023 | -1 | 20 | 0.0 | 1.6 | 0.00 | 0.43 | 0.00 | 82 | 1019.3 |
| 20260507091524 | -1 | 20 | 0.0 | 6.4 | 0.00 | 0.43 | 0.00 | 85 | 1019.3 |
| 20260507090035 | -2 | 355 | 4.8 | 8.0 | 0.00 | 0.43 | 0.00 | 87 | 1019.5 |
| 20260507084533 | -2 | 30 | 1.6 | 6.4 | 0.00 | 0.43 | 0.00 | 88 | 1019.5 |
| 20260507083024 | -2 | 22 | 0.0 | 4.8 | 0.00 | 0.43 | 0.00 | 89 | 1019.5 |
| 20260507081524 | -2 | 14 | 0.0 | 3.2 | 0.00 | 0.43 | 0.00 | 89 | 1019.8 |
| 20260507080022 | -2 | 22 | 0.0 | 0.0 | 0.00 | 0.43 | 0.00 | 88 | 1019.8 |
| 20260507074536 | -2 | 22 | 0.0 | 4.8 | 0.00 | 0.43 | 0.00 | 88 | 1020.0 |
| 20260507073022 | -2 | 26 | 1.6 | 4.8 | 0.00 | 0.43 | 0.00 | 88 | 1020.1 |
| 20260507071522 | -1 | 52 | 0.0 | 1.6 | 0.00 | 0.43 | 0.00 | 88 | 1020.2 |
| 20260507070022 | -1 | 52 | 0.0 | 1.6 | 0.00 | 0.43 | 0.00 | 88 | 1020.2 |
| 20260507064524 | -1 | 82 | 0.0 | 1.6 | 0.00 | 0.43 | 0.00 | 88 | 1020.4 |
| 20260507063025 | -1 | 96 | 0.0 | 1.6 | 0.00 | 0.43 | 0.00 | 88 | 1020.3 |
| 20260507061522 | -1 | 96 | 0.0 | 1.6 | 0.00 | 0.43 | 0.00 | 87 | 1020.3 |
| 20260507060020 | -1 | 96 | 0.0 | 0.0 | 0.00 | 0.43 | 0.00 | 87 | 1020.4 |
| 20260507054522 | -1 | 96 | 0.0 | 3.2 | 0.00 | 0.43 | 0.43 | 87 | 1020.2 |
| 20260507053022 | -1 | 128 | 0.0 | 1.6 | 0.00 | 0.43 | 0.43 | 87 | 1020.2 |
| 20260507051533 | -1 | 136 | 0.0 | 1.6 | 0.00 | 0.43 | 0.43 | 86 | 1020.2 |
| 20260507050021 | 0 | 136 | 0.0 | 0.0 | 0.00 | 0.43 | 0.43 | 86 | 1020.0 |
| 20260507044523 | 0 | 136 | 0.0 | 1.6 | 0.00 | 0.43 | 0.43 | 86 | 1020.2 |
| 20260507043020 | 0 | 136 | 0.0 | 3.2 | 0.00 | 0.43 | 0.43 | 86 | 1020.2 |
| 20260507041519 | 0 | 134 | 0.0 | 3.2 | 0.00 | 0.43 | 0.43 | 85 | 1020.3 |
| 20260507040022 | 0 | 112 | 0.0 | 6.4 | 0.00 | 0.43 | 0.43 | 84 | 1020.3 |
| 20260507034534 | 0 | 134 | 0.0 | 3.2 | 0.00 | 0.43 | 0.43 | 83 | 1020.2 |
| 20260507033022 | 0 | 142 | 0.0 | 3.2 | 0.00 | 0.43 | 0.43 | 81 | 1020.1 |
| 20260507031520 | 0 | 61 | 0.0 | 3.2 | 0.00 | 0.43 | 0.43 | 80 | 1020.1 |
| 20260507030020 | 0 | 157 | 0.0 | 1.6 | 0.00 | 0.43 | 0.43 | 79 | 1019.9 |
| 20260507024531 | 0 | 190 | 0.0 | 1.6 | 0.00 | 0.43 | 0.43 | 78 | 1019.8 |
| 20260507023018 | 1 | 276 | 0.0 | 1.6 | 0.00 | 0.43 | 0.43 | 77 | 1019.7 |
| 20260507021519 | 1 | 215 | 1.6 | 4.8 | 0.00 | 0.43 | 0.43 | 75 | 1019.8 |
| 20260507020020 | 1 | 219 | 0.0 | 6.4 | 0.00 | 0.46 | 0.43 | 74 | 1019.7 |
| 20260507014533 | 1 | 219 | 1.6 | 8.0 | 0.00 | 0.46 | 0.43 | 73 | 1019.5 |
| 20260507013020 | 2 | 213 | 1.6 | 8.0 | 0.00 | 0.46 | 0.43 | 72 | 1019.4 |
| 20260507011535 | 2 | 134 | 1.6 | 9.7 | 0.00 | 0.46 | 0.43 | 71 | 1019.4 |
| 20260507010019 | 2 | 205 | 4.8 | 9.7 | 0.00 | 0.48 | 0.43 | 70 | 1019.4 |
| 20260507004517 | 3 | 211 | 3.2 | 11.3 | 0.00 | 0.48 | 0.43 | 69 | 1019.2 |
| 20260507003020 | 3 | 200 | 4.8 | 11.3 | 0.00 | 0.48 | 0.43 | 68 | 1019.1 |
| 20260507001519 | 3 | 192 | 3.2 | 11.3 | 0.00 | 0.51 | 0.43 | 66 | 1019.1 |
| 20260507000019 | 4 | 201 | 3.2 | 11.3 | 0.00 | 0.51 | 0.43 | 64 | 1019.1 |
| 20260506234520 | 4 | 173 | 4.8 | 11.3 | 0.00 | 0.51 | 0.43 | 66 | 1019.0 |
| 20260506233018 | 4 | 146 | 1.6 | 8.0 | 0.00 | 0.53 | 0.43 | 65 | 1019.1 |
| 20260506231523 | 4 | 229 | 0.0 | 4.8 | 0.00 | 0.53 | 0.43 | 66 | 1019.2 |
| 20260506230022 | 4 | 36 | 1.6 | 4.8 | 0.00 | 0.56 | 0.43 | 68 | 1019.2 |
| 20260506224521 | 4 | 252 | 0.0 | 6.4 | 0.00 | 0.56 | 0.43 | 67 | 1019.1 |
| 20260506223017 | 4 | 331 | 1.6 | 8.0 | 0.00 | 0.58 | 0.43 | 68 | 1019.1 |
| 20260506221519 | 4 | 344 | 0.0 | 6.4 | 0.00 | 0.58 | 0.43 | 67 | 1019.3 |
| 20260506220022 | 4 | 328 | 1.6 | 6.4 | 0.00 | 0.61 | 0.43 | 75 | 1019.3 |
| 20260506214519 | 3 | 315 | 3.2 | 9.7 | 0.00 | 0.61 | 0.43 | 72 | 1019.5 |
| 20260506213020 | 3 | 335 | 3.2 | 14.5 | 0.00 | 0.61 | 0.43 | 73 | 1019.5 |
| 20260506211519 | 2 | 38 | 8.0 | 17.7 | 0.05 | 0.64 | 0.43 | 72 | 1019.5 |
| 20260506210022 | 3 | 27 | 6.4 | 16.1 | 0.08 | 0.64 | 0.43 | 73 | 1019.6 |
| 20260506204521 | 3 | 40 | 6.4 | 17.7 | 0.08 | 0.64 | 0.43 | 76 | 1019.7 |
| 20260506203016 | 2 | 5 | 8.0 | 19.3 | 0.10 | 0.64 | 0.43 | 77 | 1019.9 |
| 20260506201525 | 2 | 10 | 4.8 | 14.5 | 0.08 | 0.58 | 0.38 | 83 | 1019.8 |
| 20260506200018 | 1 | 18 | 8.0 | 17.7 | 0.33 | 0.56 | 0.36 | 79 | 1019.5 |
| 20260506194519 | 1 | 26 | 4.8 | 17.7 | 0.36 | 0.58 | 0.36 | 80 | 1019.5 |
| 20260506193019 | 1 | 331 | 11.3 | 20.9 | 0.33 | 0.56 | 0.33 | 78 | 1019.5 |
| 20260506191518 | 1 | 5 | 4.8 | 16.1 | 0.30 | 0.56 | 0.30 | 81 | 1019.5 |
| 20260506190018 | 1 | 18 | 4.8 | 12.9 | 0.03 | 0.30 | 0.03 | 83 | 1019.6 |
| 20260506184525 | 1 | 66 | 6.4 | 14.5 | 0.00 | 0.28 | 0.00 | 83 | 1019.7 |
| 20260506183018 | 1 | 360 | 3.2 | 14.5 | 0.00 | 0.30 | 0.00 | 85 | 1019.9 |
| 20260506181519 | 1 | 347 | 3.2 | 6.4 | 0.00 | 0.30 | 0.00 | 85 | 1019.7 |
| 20260506180019 | 1 | 327 | 1.6 | 4.8 | 0.00 | 0.30 | 0.00 | 85 | 1019.8 |
| 20260506174520 | 0 | 311 | 1.6 | 6.4 | 0.00 | 0.33 | 0.00 | 86 | 1019.8 |
| 20260506173018 | 0 | 331 | 1.6 | 6.4 | 0.00 | 0.33 | 0.00 | 86 | 1019.7 |
| 20260506171520 | 0 | 42 | 0.0 | 4.8 | 0.00 | 0.36 | 0.00 | 86 | 1019.3 |
| 20260506170018 | 0 | 329 | 4.8 | 14.5 | 0.00 | 0.38 | 0.00 | 85 | 1019.5 |
| 20260506164523 | 0 | 5 | 4.8 | 12.9 | 0.00 | 0.41 | 0.00 | 85 | 1019.5 |